Glasgow, United Kingdom

10:15 AM BST on July 25, 2016 (GMT +0100)
Glasgow

Weather History for EGPF - July, 2013

Change the Weather History Date:

Saturday, July 20, 2013

  Actual Average Record
Temperature  
Mean Temperature 68 °F -  
Max Temperature 78 °F 65 °F 78 °F (2013)
Min Temperature 57 °F 49 °F 44 °F (1996)
Cooling Degree Days 2    
Growing Degree Days 18 (Base 50)    
Moisture  
Dew Point 57 °F    
Average Humidity 73    
Maximum Humidity 94    
Minimum Humidity 50    
Precipitation  
Precipitation 0.00 in - - ()
Sea Level Pressure  
Sea Level Pressure 30.31 in    
Wind  
Wind Speed 9 mph ()    
Max Wind Speed 18 mph    
Max Gust Speed -    
Visibility 5.4 miles    
Events      
Averages and records for this station are not official NWS values.
T = Trace of Precipitation, MM = Missing Value Source: Averaged Metar Reports

Daily Weather History Graph

Daily Weather History Graph

Search for Another Location

Airport or City:

Trip Planner

Search our weather history database for the weather conditions in past years. The results will help you decide how hot, cold, wet, or windy it might be!

Date:

Astronomy

Jul. 20, 2013 Rise Set
Actual Time 5:01 AM BST 9:45 PM BST
Civil Twilight 4:08 AM BST 10:38 PM BST
Nautical Twilight 2:35 AM BST 12:08 AM BST
Astronomical Twilight Sun does not set Sun does not set
Moon 7:32 PM BST (7/20) 2:28 AM BST (7/20)
Length of Visible Light 18h 30m
Length of Day
16h 44m
Waxing Gibbous, 92% of the Moon is Illuminated
Jul 20
Waxing Gibbous
Jul 22
Full
Jul 29
Last Quarter
Aug 6
New
Aug 14
First Quarter

Hourly Weather History & Observations

Time (BST) Temp. Dew Point Humidity Pressure Visibility Wind Dir Wind Speed Gust Speed Precip Events Conditions
12:20 AM 62.6 °F 55.4 °F 77% 30.36 in - East 9.2 mph - N/A   Clear
12:50 AM 62.6 °F 55.4 °F 77% 30.36 in - ENE 9.2 mph - N/A   Clear
1:20 AM 60.8 °F 55.4 °F 82% 30.36 in - East 6.9 mph - N/A   Clear
1:50 AM 60.8 °F 55.4 °F 82% 30.36 in - East 6.9 mph - N/A   Clear
2:20 AM 60.8 °F 55.4 °F 82% 30.36 in - ENE 10.4 mph - N/A   Clear
2:50 AM 59.0 °F 55.4 °F 88% 30.36 in - ENE 9.2 mph - N/A   Clear
3:20 AM 59.0 °F 55.4 °F 88% 30.36 in - ENE 9.2 mph - N/A   Clear
3:50 AM 59.0 °F 55.4 °F 88% 30.36 in 5.0 mi ENE 8.1 mph - N/A   Unknown
4:20 AM 57.2 °F 55.4 °F 94% 30.36 in 3.7 mi East 6.9 mph - N/A   Unknown
4:50 AM 57.2 °F 55.4 °F 94% 30.36 in 3.7 mi East 8.1 mph - N/A   Unknown
5:20 AM 57.2 °F 55.4 °F 94% 30.36 in 3.1 mi East 8.1 mph - N/A   Haze
5:50 AM 57.2 °F 55.4 °F 94% 30.36 in 3.7 mi East 5.8 mph - N/A   Mostly Cloudy
6:20 AM 57.2 °F 55.4 °F 94% 30.36 in 3.7 mi East 8.1 mph - N/A   Mostly Cloudy
6:50 AM 59.0 °F 55.4 °F 88% 30.36 in 4.3 mi ENE 8.1 mph - N/A   Mostly Cloudy
7:20 AM 59.0 °F 55.4 °F 88% 30.36 in 4.3 mi NE 8.1 mph - N/A   Mostly Cloudy
7:50 AM 59.0 °F 55.4 °F 88% 30.36 in 5.0 mi ENE 8.1 mph - N/A   Mostly Cloudy
8:20 AM 60.8 °F 55.4 °F 82% 30.36 in 5.6 mi ENE 8.1 mph - N/A   Overcast
8:50 AM 60.8 °F 55.4 °F 82% 30.36 in 6.2 mi ENE 8.1 mph - N/A   Mostly Cloudy
9:20 AM 62.6 °F 55.4 °F 77% 30.36 in 6.2 mi ENE 9.2 mph - N/A   Partly Cloudy
9:50 AM 64.4 °F 57.2 °F 77% 30.36 in 6.2 mi ENE 9.2 mph - N/A   Partly Cloudy
10:20 AM 66.2 °F 57.2 °F 73% 30.33 in - ENE 9.2 mph - N/A   Clear
10:50 AM 68.0 °F 59.0 °F 73% 30.33 in - NE 9.2 mph - N/A   Clear
11:20 AM 68.0 °F 59.0 °F 73% 30.33 in - NE 9.2 mph - N/A   Clear
11:50 AM 71.6 °F 59.0 °F 64% 30.33 in - NE 9.2 mph - N/A   Clear
12:20 PM 71.6 °F 59.0 °F 64% 30.30 in - NE 6.9 mph - N/A   Clear
12:50 PM 73.4 °F 60.8 °F 65% 30.30 in - ENE 8.1 mph - N/A   Clear
1:20 PM 77.0 °F 60.8 °F 57% 30.30 in - NE 8.1 mph - N/A   Clear
1:50 PM 77.0 °F 60.8 °F 57% 30.30 in 6.2 mi ENE 8.1 mph - N/A   Partly Cloudy
2:20 PM 78.8 °F 60.8 °F 54% 30.27 in 6.2 mi East 6.9 mph - N/A   Partly Cloudy
2:50 PM 78.8 °F 60.8 °F 54% 30.27 in 6.2 mi ENE 10.4 mph - N/A   Partly Cloudy
3:20 PM 78.8 °F 60.8 °F 54% 30.27 in 6.2 mi East 10.4 mph - N/A   Partly Cloudy
3:50 PM 78.8 °F 60.8 °F 54% 30.27 in 6.2 mi NE 11.5 mph - N/A   Partly Cloudy
4:20 PM 78.8 °F 60.8 °F 54% 30.24 in 6.2 mi NE 10.4 mph - N/A   Partly Cloudy
4:50 PM 78.8 °F 60.8 °F 54% 30.24 in - ENE 10.4 mph - N/A   Clear
5:20 PM 78.8 °F 60.8 °F 54% 30.24 in - ENE 12.7 mph - N/A   Clear
5:50 PM 77.0 °F 57.2 °F 50% 30.24 in - NE 12.7 mph - N/A   Clear
6:20 PM 77.0 °F 57.2 °F 50% 30.24 in - NE 11.5 mph - N/A   Clear
6:50 PM 75.2 °F 59.0 °F 57% 30.24 in - NE 12.7 mph - N/A   Clear
7:20 PM 75.2 °F 60.8 °F 61% 30.24 in 6.2 mi ENE 11.5 mph - N/A   Partly Cloudy
7:50 PM 73.4 °F 59.0 °F 61% 30.24 in 6.2 mi ENE 13.8 mph - N/A   Partly Cloudy
8:20 PM 71.6 °F 59.0 °F 64% 30.24 in 6.2 mi ENE 11.5 mph - N/A   Partly Cloudy
8:50 PM 69.8 °F 59.0 °F 68% 30.24 in 6.2 mi East 12.7 mph - N/A   Partly Cloudy
9:20 PM 68.0 °F 57.2 °F 68% 30.24 in 6.2 mi ENE 15.0 mph - N/A   Partly Cloudy
9:50 PM 66.2 °F 57.2 °F 73% 30.27 in - ENE 13.8 mph - N/A   Clear
10:20 PM 64.4 °F 55.4 °F 73% 30.27 in - East 12.7 mph - N/A   Clear
10:50 PM 62.6 °F 55.4 °F 77% 30.27 in - East 13.8 mph - N/A   Clear
11:20 PM 60.8 °F 55.4 °F 82% 30.27 in - East 18.4 mph - N/A   Clear
11:50 PM 59.0 °F 55.4 °F 88% 30.27 in - East 16.1 mph - N/A   Clear